Theta_e
318 318 318 318 318 318 319 318 319 319 319 319 319 319 319 319 320 320 320 320 321 321 322 323 324 326 324 330 334 331 355 351 341 344 345 346 342 339 333 336 331 333 333 333 334 333 334
318 317 318 318 318 317 317 318 319 319 319 319 318 318 318 318 319 319 319 319 320 320 321 323 325 325 329 320 343 341 342 342 348 350 348 346 341 341 338 334 332 333 332 332 334 333 333
317 318 317 317 317 317 317 318 318 318 318 317 317 317 318 318 318 318 319 319 319 320 321 323 326 325 322 323 339 342 340 339 344 347 343 345 345 340 339 333 337 334 327 330 330 333 331
317 317 317 317 317 317 317 317 317 317 317 317 317 317 317 317 317 317 317 317 318 320 322 325 328 323 323 332 338 341 337 340 345 346 343 345 345 340 338 340 332 328 329 323 330 330 331
316 317 317 317 317 316 317 317 316 316 316 316 317 316 316 316 316 316 316 316 318 322 324 327 326 323 323 331 328 339 338 334 338 339 340 341 339 334 336 328 323 326 318 321 323 330 331
317 317 317 317 317 317 316 316 316 316 316 316 316 316 316 316 316 316 315 316 324 321 325 325 325 319 325 324 331 334 340 338 333 334 333 333 333 329 330 324 316 318 319 320 320 325 327
317 317 317 317 317 317 316 316 316 317 317 317 317 316 316 315 315 315 317 324 318 317 321 319 323 324 326 331 334 331 336 334 333 331 325 331 325 321 328 326 325 322 319 318 322 325 322
317 317 317 318 317 317 317 317 317 316 316 316 316 316 316 315 314 314 315 319 321 322 315 321 322 324 327 330 324 328 335 327 328 324 329 327 324 327 329 330 325 323 319 318 323 325 322
316 317 317 317 318 318 318 317 316 316 316 316 315 315 315 314 314 316 319 322 327 325 314 316 321 322 323 325 322 325 329 327 325 324 325 323 325 330 327 325 322 322 319 319 317 320 322
317 318 318 318 318 318 317 317 317 316 316 315 315 314 314 312 314 322 320 325 326 326 309 312 315 319 323 324 318 328 331 327 324 321 323 323 328 327 325 323 324 318 323 321 319 316 311
318 318 318 318 317 317 317 316 316 316 316 315 315 314 313 312 315 319 326 326 326 323 302 314 315 322 320 318 321 322 330 327 320 321 322 318 321 321 320 322 325 321 325 321 320 316 316
317 318 318 317 317 317 316 316 316 316 315 315 314 313 312 319 320 320 324 326 323 307 301 312 315 313 312 316 317 322 323 326 327 322 322 321 326 324 323 324 325 326 321 319 318 315 309
317 317 317 317 316 316 316 315 315 315 315 314 313 312 312 319 319 325 324 321 308 303 314 312 313 315 311 311 312 315 318 317 314 311 312 317 319 323 324 319 322 321 316 307 307 307 307
317 317 317 316 316 315 315 315 315 315 314 313 311 310 314 318 321 321 321 313 304 313 312 317 315 314 311 313 312 312 314 312 317 316 313 311 309 317 321 318 316 316 315 308 303 304 307
317 317 317 316 316 315 315 315 314 314 313 312 309 324 321 325 321 321 316 305 308 312 315 312 314 311 312 314 314 312 310 311 314 318 311 310 311 320 321 321 320 316 312 316 308 309 306
316 317 316 316 315 315 315 315 314 314 312 310 317 320 320 324 322 318 310 304 311 316 315 315 308 313 310 313 312 312 312 314 312 316 320 316 309 317 318 320 320 316 318 307 309 302 301
316 316 316 316 315 315 315 315 314 313 311 309 319 316 325 326 321 312 304 307 311 316 317 313 311 311 313 313 314 312 313 316 317 316 317 315 313 311 315 313 313 313 311 311 310 307 302
316 316 315 315 315 315 315 314 313 312 309 313 321 312 326 324 308 309 306 309 307 313 317 314 314 313 312 313 313 312 312 317 321 319 313 317 312 307 310 316 318 316 313 312 308 307 308
315 316 315 315 315 315 315 314 313 311 310 313 318 317 324 319 303 305 310 310 312 312 313 313 312 313 314 311 309 312 313 318 320 318 316 317 312 305 307 312 315 313 315 314 313 312 309
315 315 315 315 315 315 315 314 313 312 311 312 318 313 317 316 313 309 309 310 309 314 312 314 312 313 311 310 313 310 312 317 319 318 330 321 313 310 305 309 313 311 314 315 314 307 308
315 315 315 315 315 315 315 315 314 312 311 313 319 315 321 311 310 310 310 311 309 308 313 313 311 310 310 308 310 309 312 313 316 321 318 315 310 312 312 313 313 312 312 314 313 313 309
314 314 315 315 315 315 315 314 314 312 309 319 314 314 317 316 316 314 309 310 309 311 311 311 313 313 314 312 312 310 312 313 312 315 314 316 312 313 310 313 313 311 313 313 314 312 312
314 314 314 315 315 315 315 315 314 311 310 319 320 319 316 311 313 311 312 312 312 314 316 316 315 316 314 317 320 320 320 319 317 314 315 315 313 312 308 313 311 308 312 313 314 316 314
314 314 314 314 315 315 315 315 314 312 310 313 318 316 313 309 311 312 314 314 313 314 314 317 318 315 319 324 323 320 318 317 316 316 317 313 316 313 307 310 301 312 317 317 315 316 318
313 314 314 314 314 314 315 315 314 313 311 312 318 314 313 309 312 311 312 314 317 317 315 315 319 320 322 319 312 310 311 313 315 316 315 315 312 308 306 304 308 311 315 315 313 313 319
313 313 314 314 313 313 313 313 314 313 311 312 317 318 313 309 311 313 311 311 309 310 312 314 318 321 319 314 310 306 304 309 309 313 318 316 317 310 308 302 300 312 317 322 319 308 325
312 312 313 313 313 313 313 313 313 314 312 311 315 321 314 309 313 313 309 310 314 311 308 312 314 315 317 309 306 305 305 312 306 307 309 311 314 308 308 305 308 317 320 322 308 313 326
312 312 312 312 313 313 313 313 313 313 313 311 314 323 314 309 311 313 313 310 311 310 307 312 311 311 309 305 306 306 306 309 309 312 310 310 309 308 310 306 303 319 319 315 320 327 327
313 312 312 312 312 312 313 312 313 313 313 312 314 320 322 313 312 317 318 318 316 315 313 313 310 312 314 311 313 312 309 311 311 305 316 307 314 311 313 312 322 323 322 325 324 319 323
Wind_Speed
16 15 15 15 15 16 16 16 16 16 16 16 16 17 17 17 17 17 17 17 17 16 15 14 14 13 9 9 3 11 8 7 10 13 17 14 7 20 15 12 14 10 9 5 7 5 6
16 15 16 16 16 15 15 16 16 17 17 17 17 17 17 18 18 17 18 17 18 17 16 13 14 11 7 6 7 15 13 12 14 14 11 10 8 7 14 7 4 7 3 4 8 9 6
15 15 15 15 16 16 16 16 17 17 17 17 18 18 18 19 19 19 19 19 19 18 17 13 10 7 7 10 5 11 14 13 13 14 15 7 10 13 15 11 6 9 1 5 5 9 4
15 15 15 15 15 15 16 17 17 18 18 18 17 18 18 19 20 20 20 21 20 18 16 12 6 7 9 10 7 12 13 13 14 12 15 13 12 16 16 12 7 12 9 8 10 4 4
16 16 16 16 16 16 16 17 17 18 18 19 18 19 18 19 20 21 21 22 21 15 11 11 7 8 15 4 11 12 14 13 12 11 13 11 13 16 18 11 13 12 5 10 11 3 7
16 16 17 17 17 17 17 17 17 17 17 18 19 19 20 19 19 20 25 20 6 11 8 9 11 10 14 13 11 12 13 13 8 9 12 15 14 16 12 3 8 7 20 4 7 1 5
16 16 17 17 17 17 17 17 18 18 18 19 19 19 20 20 20 18 16 5 6 7 12 15 15 15 10 4 8 10 12 12 13 14 13 15 13 11 6 17 6 8 9 13 8 5 9
15 16 16 17 17 17 17 17 17 19 20 20 21 20 21 22 21 18 8 7 8 8 10 23 20 18 5 7 11 13 13 12 14 15 14 14 16 10 11 17 7 9 11 5 10 7 9
16 16 16 16 17 17 17 18 17 17 17 18 18 19 20 22 25 9 11 15 8 9 8 16 23 20 13 10 13 14 17 16 18 15 17 19 6 6 4 9 8 12 14 12 7 13 18
17 17 16 17 17 17 17 18 19 19 19 18 19 20 19 25 6 8 10 3 7 7 7 12 21 17 20 16 18 18 19 18 16 19 15 14 14 15 7 9 10 17 6 8 11 12 13
16 16 17 17 17 18 18 18 19 19 19 20 20 20 18 11 13 7 7 6 8 6 8 14 14 2 16 23 7 20 14 14 21 17 14 16 16 13 14 12 16 16 14 14 10 14 19
18 18 18 18 18 19 19 19 19 20 20 20 19 19 20 6 8 15 11 8 7 8 8 10 10 11 14 18 20 17 19 14 16 19 19 19 18 17 9 11 14 11 11 15 17 17 16
18 18 19 19 19 20 20 21 21 22 21 20 21 17 10 9 3 9 8 7 7 10 5 11 13 13 16 16 19 21 15 19 15 15 16 18 21 19 16 14 15 13 14 12 13 12 15
18 18 19 20 20 21 21 22 23 23 24 25 23 18 11 9 9 8 7 8 9 14 10 7 2 14 14 16 16 19 21 16 19 21 17 16 15 23 20 21 15 16 18 12 19 15 17
17 18 19 19 20 21 22 23 25 26 26 26 33 6 6 8 13 8 8 11 10 14 10 4 10 9 12 13 8 15 20 19 19 20 19 18 21 19 10 4 13 15 17 16 21 20 19
17 18 18 19 21 22 23 24 26 28 29 23 7 10 10 10 11 8 9 16 19 12 3 8 11 9 14 15 13 13 14 17 21 21 20 18 18 18 20 13 11 11 12 17 13 18 19
17 18 18 19 20 21 23 24 25 28 33 23 5 7 9 9 7 8 11 17 19 20 4 8 15 16 7 15 5 10 14 11 17 16 19 20 14 15 16 16 16 13 16 15 16 14 14
17 18 18 19 20 21 22 24 24 24 32 6 8 9 8 9 9 9 13 19 20 17 5 6 15 13 14 14 9 9 16 13 11 9 10 14 17 16 22 20 20 18 17 19 13 13 13
17 18 19 19 20 21 22 23 24 21 16 9 7 7 6 8 8 12 15 20 20 18 15 13 9 14 14 14 13 13 15 20 6 5 8 12 9 13 15 15 18 13 19 18 15 18 17
17 17 18 19 20 21 22 23 25 23 16 6 7 5 7 7 12 18 16 16 17 10 11 14 15 14 13 12 13 14 16 15 8 2 6 5 15 19 16 15 15 3 17 14 18 12 15
17 17 18 18 19 21 22 24 26 28 25 5 6 8 14 5 12 15 17 17 14 14 17 9 13 17 15 14 15 17 18 18 19 11 8 11 17 18 20 23 25 23 10 20 17 15 12
17 17 17 18 19 20 21 23 25 30 36 6 7 8 12 14 12 8 10 13 17 13 12 11 12 14 15 13 12 13 17 16 14 15 17 15 15 17 20 21 22 26 23 24 10 4 18
15 16 17 17 18 19 21 22 22 23 26 7 9 9 9 11 11 11 10 11 12 10 15 2 12 7 5 10 11 14 16 16 17 15 14 14 14 12 16 18 19 15 24 19 23 11 19
15 16 17 17 18 19 19 20 20 18 15 8 11 8 8 10 12 11 8 6 9 5 7 10 9 5 8 9 14 15 17 19 18 17 17 16 13 11 15 17 24 17 18 13 18 19 9
14 15 16 18 18 18 19 19 19 19 16 10 9 7 7 10 14 10 12 6 7 10 8 12 12 5 8 8 12 12 13 16 17 19 18 18 16 13 14 15 22 23 10 11 11 10 12
15 15 16 17 18 19 19 20 19 18 16 10 10 4 8 7 6 13 13 10 9 10 12 16 15 7 5 9 10 13 11 14 8 16 16 18 16 12 10 17 21 17 15 17 8 7 7
16 16 17 17 17 18 18 18 19 18 17 10 8 7 7 8 9 8 8 9 11 10 8 8 9 1 7 9 11 12 13 15 13 13 10 6 5 11 9 12 8 13 20 18 10 9 13
16 16 17 17 17 17 18 18 18 18 16 11 9 3 5 7 14 15 11 10 9 6 8 10 6 7 7 10 9 10 11 13 13 13 7 9 10 10 9 10 14 17 8 8 13 19 20
15 16 16 16 17 17 17 17 17 16 15 13 8 10 4 6 10 17 16 16 14 10 8 6 9 6 6 7 7 6 8 7 10 10 10 6 9 6 5 4 7 12 13 7 8 9 17
Wind_Direction
22 20 18 15 11 7 4 1 358 354 352 351 348 346 342 340 336 330 324 321 314 312 312 312 307 312 290 227 79 132 146 176 213 237 238 244 170 208 218 208 155 250 213 124 119 134 344
19 16 15 12 10 5 3 358 356 352 350 350 347 346 338 336 333 328 322 318 312 309 307 309 303 314 248 278 103 151 178 180 240 249 267 264 331 316 292 165 166 265 292 128 166 139 187
18 13 13 10 7 3 359 355 356 352 350 347 344 341 337 334 330 326 321 315 310 307 303 304 303 290 265 256 187 186 210 206 221 261 288 325 326 304 318 308 205 251 353 43 277 184 175
14 13 11 8 7 2 357 355 352 350 346 343 340 337 334 331 327 323 317 310 305 299 296 289 281 265 259 186 223 183 210 217 230 250 268 295 299 299 277 281 262 250 164 208 215 172 121
13 11 8 6 4 359 357 354 350 346 343 339 336 332 329 328 325 321 314 306 297 287 267 283 258 236 273 116 212 212 209 228 222 242 257 274 279 273 277 74 336 317 328 237 117 195 186
14 9 6 4 0 358 355 353 348 344 339 335 333 329 327 326 324 322 316 293 274 295 214 236 260 266 230 218 198 205 208 236 264 246 250 246 255 253 268 161 260 243 215 260 101 164 206
12 10 6 0 359 356 353 349 344 340 336 334 331 328 324 322 321 325 328 236 208 200 230 228 190 220 146 168 123 210 200 219 248 250 255 233 251 261 202 251 16 320 314 307 133 154 280
10 6 2 357 353 350 346 346 343 342 340 336 332 326 324 321 317 317 281 250 25 339 292 225 252 252 271 157 204 217 197 219 225 245 227 245 240 261 222 260 303 299 287 295 283 145 227
5 3 360 354 349 347 345 348 341 339 333 330 328 324 321 317 316 279 240 284 346 323 264 255 214 231 206 220 245 211 191 215 244 227 254 257 277 335 297 290 252 257 259 322 12 327 285
1 357 354 352 349 346 345 341 337 336 333 330 324 324 323 320 298 315 247 251 279 311 276 220 205 217 217 210 238 249 180 221 228 259 253 264 276 256 246 263 267 279 6 328 307 297 298
360 356 353 351 348 345 342 340 335 332 330 326 326 322 320 328 316 266 13 292 336 262 271 128 178 130 206 210 203 200 220 205 244 232 242 261 250 252 271 278 280 266 315 325 310 292 281
358 355 353 351 348 344 341 338 336 332 328 324 320 318 322 223 214 257 304 294 254 233 242 160 142 195 211 207 230 260 195 214 237 248 270 276 281 287 285 284 259 291 316 294 277 267 266
357 353 351 350 347 344 341 339 336 333 329 324 317 310 290 306 254 346 302 263 228 246 111 159 175 194 202 207 212 228 195 204 222 231 245 253 252 264 259 240 273 279 270 273 273 270 275
353 352 350 348 346 344 341 340 337 334 331 326 316 305 212 249 287 259 261 234 251 259 226 68 353 173 205 221 194 212 223 221 228 239 267 257 237 224 225 231 246 252 253 261 281 281 285
353 351 350 347 344 343 341 341 338 335 333 332 312 184 226 226 221 262 239 224 233 240 347 21 230 257 225 240 233 191 222 237 241 216 240 264 266 279 282 229 235 244 242 261 270 275 277
351 351 350 347 344 343 342 341 340 337 333 338 307 280 241 137 173 217 234 246 254 309 69 322 279 273 245 201 195 247 211 221 235 256 231 239 258 269 283 290 236 250 281 279 267 264 262
349 348 349 348 345 344 342 342 342 340 333 336 248 236 108 150 187 224 230 234 254 257 206 267 274 289 276 292 222 227 236 231 215 227 237 264 241 253 263 263 256 247 220 236 255 274 292
348 345 348 348 346 344 343 342 343 347 337 321 286 264 132 167 204 225 237 241 268 285 199 227 277 290 310 314 299 272 286 300 35 327 258 265 247 264 263 254 258 255 249 262 250 245 244
348 346 347 348 347 345 344 343 343 350 5 315 272 230 156 210 236 234 237 245 258 254 244 269 248 261 276 277 283 280 277 289 6 334 5 327 291 256 257 263 264 253 252 233 256 270 277
346 347 347 346 346 345 345 344 341 343 346 293 274 248 144 204 255 279 289 244 239 251 276 286 290 283 282 273 271 271 281 289 310 236 80 305 276 277 289 286 308 202 290 295 307 277 279
345 346 346 345 345 345 345 345 342 338 338 267 245 268 5 198 210 230 259 280 287 222 229 231 265 254 263 266 265 265 262 262 271 265 227 256 268 275 281 288 291 299 214 268 260 329 2
343 343 344 344 345 346 345 347 347 344 334 231 320 341 351 302 296 295 259 248 270 272 233 216 219 260 276 273 256 278 286 286 267 269 260 228 258 260 271 283 292 288 285 289 224 263 312
340 341 341 341 342 345 346 348 352 356 343 321 14 331 300 291 272 261 250 260 242 249 278 298 266 299 266 343 349 320 309 305 300 289 286 291 291 294 286 294 291 298 289 300 317 313 344
336 337 338 339 339 343 345 346 351 357 3 315 299 319 280 283 269 268 285 282 276 282 309 284 243 251 278 0 312 287 270 260 263 269 272 265 263 270 276 286 278 287 283 313 50 346 334
329 332 333 336 339 341 342 344 347 348 351 321 297 319 313 296 305 317 330 280 284 292 261 277 290 270 296 305 280 274 265 249 235 241 240 247 253 252 254 248 267 272 323 358 357 277 229
335 332 330 332 336 338 340 343 343 343 349 324 294 335 298 289 26 355 319 329 302 278 245 228 236 254 316 284 276 272 266 280 263 215 228 231 232 248 267 276 283 304 16 344 310 265 38
332 330 329 329 331 333 336 339 341 342 343 329 287 334 293 290 263 359 344 341 335 326 302 329 354 217 269 254 261 264 268 271 264 268 277 261 270 285 302 300 298 2 355 345 290 6 336
331 330 327 326 327 329 332 335 336 339 344 340 301 316 321 302 296 296 314 301 294 268 289 26 284 238 240 253 251 268 270 280 297 302 321 277 294 281 247 262 299 28 330 25 355 2 356
325 326 326 325 325 325 326 327 330 335 340 335 288 343 355 272 292 317 285 275 283 291 310 312 330 312 351 315 350 330 312 322 318 297 315 297 354 357 333 15 83 50 65 63 25 328 338